�������l�o���
Date,Time,MP-1(��Sv/h),MP-2(��Sv/h),MP-3(��Sv/h),MP-4(��Sv/h),MP-5(��Sv/h),MP-6(��Sv/h),MP-7(��Sv/h),MP-8(��Sv/h),����,����(m/s),���J
2018/10/13,00:00,0.767,1.149,0.811,1.446,1.038,0.455,0.798,0.758,���k��,4.9,��
2018/10/13,00:10,0.766,1.151,0.813,1.447,1.037,0.454,0.797,0.757,�k��,4.8,��
2018/10/13,00:20,0.769,1.155,0.813,1.447,1.037,0.454,0.797,0.756,�k��,4.8,��
2018/10/13,00:30,0.766,1.150,0.813,1.446,1.039,0.455,0.800,0.757,���k��,5.5,��
2018/10/13,00:40,0.765,1.152,0.815,1.449,1.037,0.454,0.797,0.755,�k��,6.0,��
2018/10/13,00:50,0.766,1.153,0.814,1.448,1.035,0.455,0.799,0.757,�k��,6.1,��
2018/10/13,01:00,0.766,1.153,0.812,1.447,1.038,0.456,0.797,0.759,���k��,6.3,��
2018/10/13,01:10,0.767,1.153,0.813,1.449,1.038,0.455,0.798,0.756,���k��,6.8,��
2018/10/13,01:20,0.767,1.153,0.813,1.449,1.040,0.455,0.797,0.757,�k��,7.5,��
2018/10/13,01:30,0.767,1.154,0.812,1.448,1.040,0.454,0.797,0.759,�k��,5.4,��
2018/10/13,01:40,0.768,1.154,0.813,1.447,1.038,0.455,0.795,0.756,���k��,4.5,��
2018/10/13,01:50,0.767,1.155,0.813,1.447,1.038,0.455,0.797,0.757,���k��,4.6,��
2018/10/13,02:00,0.767,1.155,0.812,1.449,1.039,0.455,0.797,0.760,���k��,3.5,��
2018/10/13,02:10,0.767,1.153,0.814,1.447,1.037,0.456,0.798,0.757,���k��,3.4,��
2018/10/13,02:20,0.767,1.155,0.812,1.447,1.039,0.456,0.796,0.757,�k��,4.2,��
2018/10/13,02:30,0.766,1.152,0.815,1.449,1.041,0.454,0.799,0.757,�k��,3.8,��
2018/10/13,02:40,0.766,1.154,0.810,1.447,1.041,0.455,0.798,0.759,�k��,5.7,��
2018/10/13,02:50,0.768,1.154,0.814,1.447,1.038,0.455,0.797,0.758,�k�k��,6.0,��
2018/10/13,03:00,0.765,1.156,0.813,1.449,1.038,0.454,0.799,0.758,�k��,6.0,��
2018/10/13,03:10,0.768,1.156,0.813,1.448,1.040,0.455,0.799,0.757,�k��,5.4,��
2018/10/13,03:20,0.766,1.155,0.814,1.446,1.039,0.453,0.796,0.757,�k��,5.6,��
2018/10/13,03:30,0.766,1.154,0.813,1.448,1.039,0.457,0.796,0.757,�k�k��,4.8,��
2018/10/13,03:40,0.768,1.154,0.814,1.449,1.038,0.454,0.797,0.757,�k�k��,5.1,��
2018/10/13,03:50,0.767,1.154,0.813,1.450,1.040,0.454,0.795,0.756,�k�k��,4.8,��
2018/10/13,04:00,0.767,1.153,0.814,1.449,1.040,0.455,0.797,0.757,�k�k��,5.4,��
2018/10/13,04:10,0.765,1.153,0.811,1.447,1.039,0.454,0.798,0.758,�k�k��,6.3,��
2018/10/13,04:20,0.766,1.154,0.812,1.450,1.040,0.455,0.799,0.757,�k�k��,6.3,��
2018/10/13,04:30,0.766,1.153,0.812,1.450,1.036,0.454,0.798,0.757,�k�k��,6.0,��
2018/10/13,04:40,0.768,1.155,0.814,1.450,1.039,0.454,0.798,0.758,�k�k��,6.3,��
2018/10/13,04:50,0.765,1.150,0.813,1.449,1.038,0.456,0.798,0.757,�k�k��,7.1,��
2018/10/13,05:00,0.767,1.153,0.815,1.449,1.038,0.454,0.798,0.757,�k�k��,6.8,��
2018/10/13,05:10,0.767,1.155,0.813,1.451,1.038,0.456,0.799,0.758,�k��,6.2,��
2018/10/13,05:20,0.767,1.154,0.815,1.445,1.038,0.455,0.797,0.758,�k��,5.1,��
2018/10/13,05:30,0.766,1.154,0.814,1.447,1.037,0.455,0.797,0.756,�k��,5.6,��
2018/10/13,05:40,0.765,1.153,0.812,1.449,1.038,0.455,0.797,0.757,�k�k��,6.1,��
2018/10/13,05:50,0.768,1.153,0.811,1.447,1.040,0.456,0.796,0.755,�k�k��,6.4,��
2018/10/13,06:00,0.768,1.156,0.814,1.450,1.039,0.455,0.798,0.758,�k�k��,6.8,��
2018/10/13,06:10,0.769,1.157,0.812,1.450,1.038,0.455,0.797,0.757,�k�k��,6.7,��
2018/10/13,06:20,0.767,1.154,0.813,1.448,1.038,0.455,0.797,0.757,�k�k��,7.1,��
2018/10/13,06:30,0.767,1.154,0.813,1.446,1.037,0.456,0.797,0.758,�k��,6.0,��
2018/10/13,06:40,0.767,1.153,0.814,1.448,1.039,0.456,0.799,0.757,�k��,5.7,��
2018/10/13,06:50,0.766,1.153,0.814,1.447,1.039,0.455,0.795,0.758,�k��,5.6,��
2018/10/13,07:00,0.768,1.156,0.812,1.446,1.040,0.453,0.798,0.759,�k��,6.1,��
2018/10/13,07:10,0.768,1.155,0.813,1.448,1.038,0.456,0.797,0.757,�k��,5.4,��
2018/10/13,07:20,0.767,1.154,0.814,1.450,1.039,0.455,0.798,0.756,�k��,5.9,��
2018/10/13,07:30,0.768,1.153,0.812,1.449,1.040,0.456,0.797,0.758,�k��,5.8,��
2018/10/13,07:40,0.769,1.155,0.814,1.448,1.040,0.454,0.798,0.757,�k��,6.0,��
2018/10/13,07:50,0.769,1.157,0.814,1.451,1.038,0.457,0.799,0.758,�k�k��,5.9,��
2018/10/13,08:00,0.766,1.152,0.813,1.448,1.041,0.457,0.798,0.757,�k�k��,6.3,��
2018/10/13,08:10,0.768,1.156,0.814,1.449,1.040,0.454,0.798,0.758,�k�k��,6.1,��
2018/10/13,08:20,0.767,1.155,0.817,1.450,1.039,0.455,0.798,0.760,�k��,6.4,��
2018/10/13,08:30,0.769,1.158,0.815,1.451,1.041,0.456,0.798,0.759,�k�k��,5.4,��
2018/10/13,08:40,0.769,1.154,0.814,1.450,1.041,0.457,0.798,0.759,�k�k��,5.2,��
2018/10/13,08:50,0.770,1.158,0.813,1.452,1.043,0.456,0.799,0.759,�k�k��,4.8,��
2018/10/13,09:00,0.770,1.157,0.815,1.451,1.041,0.455,0.800,0.759,�k�k��,4.3,��
2018/10/13,09:10,0.770,1.151,0.816,1.451,1.040,0.454,0.798,0.760,�k�k��,4.9,��
2018/10/13,09:20,0.770,1.149,0.816,1.452,1.041,0.456,0.800,0.758,�k�k��,4.7,��
2018/10/13,09:30,0.767,1.150,0.813,1.451,1.042,0.455,0.798,0.759,�k,5.1,��
2018/10/13,09:40,0.767,1.150,0.816,1.454,1.040,0.453,0.798,0.758,�k,5.4,��
2018/10/13,09:50,0.766,1.152,0.814,1.450,1.040,0.455,0.798,0.759,�k,5.3,��
2018/10/13,10:00,0.766,1.152,0.817,1.452,1.041,0.454,0.799,0.758,�k,4.4,��
2018/10/13,10:10,0.768,1.154,0.816,1.455,1.042,0.453,0.800,0.757,�k,4.9,��
2018/10/13,10:20,0.767,1.151,0.818,1.452,1.041,0.452,0.798,0.756,�k,6.1,��
2018/10/13,10:30,0.769,1.155,0.814,1.455,1.041,0.454,0.799,0.758,�k,5.1,��
2018/10/13,10:40,0.768,1.154,0.815,1.452,1.044,0.453,0.799,0.756,�k,5.8,��
2018/10/13,10:50,0.768,1.155,0.814,1.454,1.044,0.453,0.797,0.757,�k,6.2,��
2018/10/13,11:00,0.768,1.155,0.814,1.455,1.043,0.454,0.798,0.758,�k,6.7,��
2018/10/13,11:10,0.770,1.155,0.815,1.456,1.042,0.453,0.799,0.756,�k�k��,5.9,��
2018/10/13,11:20,0.769,1.157,0.815,1.456,1.043,0.453,0.800,0.757,�k�k��,6.4,��
2018/10/13,11:30,0.770,1.157,0.815,1.455,1.044,0.452,0.800,0.756,�k,6.4,��
2018/10/13,11:40,0.772,1.158,0.814,1.456,1.044,0.454,0.798,0.756,�k�k��,5.5,��
2018/10/13,11:50,0.769,1.158,0.814,1.454,1.045,0.453,0.798,0.757,�k,5.2,��
2018/10/13,12:00,0.769,1.156,0.815,1.454,1.042,0.453,0.800,0.757,�k�k��,5.4,��
2018/10/13,12:10,0.770,1.159,0.815,1.455,1.046,0.454,0.800,0.757,�k�k��,5.8,��
2018/10/13,12:20,0.770,1.157,0.814,1.456,1.045,0.452,0.800,0.755,�k,5.8,��
2018/10/13,12:30,0.771,1.155,0.813,1.455,1.046,0.453,0.800,0.758,�k,5.5,��
2018/10/13,12:40,0.771,1.158,0.817,1.456,1.044,0.454,0.800,0.757,�k�k��,4.9,��
2018/10/13,12:50,0.769,1.157,0.817,1.455,1.046,0.452,0.799,0.757,�k,4.0,��
2018/10/13,13:00,0.770,1.156,0.816,1.455,1.045,0.452,0.800,0.755,�k�k��,4.8,��
2018/10/13,13:10,0.771,1.159,0.817,1.458,1.047,0.455,0.799,0.756,�k�k��,5.6,��
2018/10/13,13:20,0.770,1.159,0.815,1.458,1.047,0.454,0.799,0.759,�k�k��,5.0,��
2018/10/13,13:30,0.770,1.158,0.816,1.455,1.049,0.455,0.800,0.757,�k,6.1,��
2018/10/13,13:40,0.772,1.160,0.816,1.459,1.050,0.451,0.801,0.758,�k�k��,5.8,��
2018/10/13,13:50,0.770,1.159,0.816,1.458,1.046,0.455,0.800,0.757,�k�k��,5.3,��
2018/10/13,14:00,0.770,1.159,0.818,1.458,1.048,0.454,0.798,0.759,�k�k��,5.6,��
2018/10/13,14:10,0.771,1.160,0.817,1.458,1.047,0.453,0.799,0.757,�k�k��,5.4,��
2018/10/13,14:20,0.773,1.160,0.818,1.461,1.048,0.453,0.798,0.759,�k,5.0,��
2018/10/13,14:30,0.773,1.160,0.817,1.456,1.048,0.455,0.799,0.757,�k,5.2,��
2018/10/13,14:40,0.772,1.163,0.816,1.459,1.049,0.455,0.800,0.757,�k�k��,5.0,��
2018/10/13,14:50,0.771,1.165,0.816,1.459,1.049,0.454,0.800,0.758,�k�k��,5.1,��
2018/10/13,15:00,0.773,1.161,0.816,1.458,1.049,0.455,0.800,0.756,�k�k��,4.3,��
2018/10/13,15:10,0.771,1.163,0.816,1.462,1.049,0.455,0.800,0.758,�k,3.8,��
2018/10/13,15:20,0.773,1.166,0.816,1.458,1.050,0.456,0.802,0.758,�k�k��,3.8,��
2018/10/13,15:30,0.770,1.167,0.817,1.459,1.048,0.453,0.800,0.759,�k�k��,3.7,��
2018/10/13,15:40,0.772,1.165,0.818,1.460,1.045,0.455,0.799,0.760,�k�k��,4.1,��
2018/10/13,15:50,0.771,1.169,0.818,1.458,1.047,0.453,0.801,0.758,�k,4.0,��
2018/10/13,16:00,0.773,1.168,0.819,1.457,1.048,0.456,0.800,0.759,�k,3.0,��
2018/10/13,16:10,0.773,1.170,0.820,1.461,1.049,0.455,0.799,0.758,�k,3.4,��
2018/10/13,16:20,0.774,1.167,0.819,1.460,1.050,0.457,0.800,0.758,�k,3.0,��
2018/10/13,16:30,0.775,1.170,0.819,1.458,1.052,0.456,0.799,0.758,�k,2.8,��
2018/10/13,16:40,0.775,1.170,0.818,1.460,1.052,0.455,0.800,0.761,�k�k��,3.2,��
2018/10/13,16:50,0.774,1.168,0.818,1.459,1.052,0.456,0.798,0.760,�k,3.8,��
2018/10/13,17:00,0.774,1.168,0.818,1.461,1.052,0.456,0.800,0.763,�k,3.6,��
2018/10/13,17:10,0.775,1.170,0.817,1.460,1.051,0.455,0.802,0.761,�k,3.4,��
2018/10/13,17:20,0.774,1.171,0.818,1.458,1.054,0.457,0.800,0.760,�k�k��,3.3,��
2018/10/13,17:30,0.775,1.172,0.819,1.458,1.052,0.455,0.800,0.761,�k,2.8,��
2018/10/13,17:40,0.775,1.169,0.818,1.461,1.050,0.457,0.801,0.761,�k�k��,3.3,��
2018/10/13,17:50,0.773,1.171,0.819,1.461,1.052,0.456,0.800,0.760,�k�k��,3.2,��
2018/10/13,18:00,0.775,1.170,0.819,1.459,1.052,0.455,0.801,0.761,�k�k��,3.0,��
2018/10/13,18:10,0.775,1.168,0.818,1.460,1.051,0.456,0.801,0.758,�k��,3.4,��
2018/10/13,18:20,0.774,1.169,0.819,1.461,1.051,0.456,0.802,0.761,�k��,3.5,��
2018/10/13,18:30,0.774,1.169,0.818,1.461,1.050,0.456,0.800,0.760,�k��,3.6,��
2018/10/13,18:40,0.774,1.167,0.821,1.460,1.051,0.455,0.799,0.760,�k��,3.0,��
2018/10/13,18:50,0.775,1.170,0.819,1.460,1.051,0.456,0.802,0.760,�k��,3.7,��
2018/10/13,19:00,0.774,1.170,0.821,1.461,1.051,0.456,0.802,0.760,�k��,3.2,��
2018/10/13,19:10,0.772,1.165,0.819,1.460,1.052,0.456,0.802,0.759,�k��,3.6,��
2018/10/13,19:20,0.775,1.168,0.818,1.459,1.051,0.456,0.802,0.762,�k�k��,3.3,��
2018/10/13,19:30,0.773,1.170,0.820,1.460,1.051,0.457,0.800,0.760,�k�k��,3.3,��
2018/10/13,19:40,0.776,1.169,0.817,1.459,1.054,0.454,0.801,0.760,�k��,3.5,��
2018/10/13,19:50,0.773,1.167,0.819,1.461,1.050,0.455,0.802,0.759,�k��,3.7,��
2018/10/13,20:00,0.776,1.170,0.820,1.458,1.051,0.457,0.802,0.760,�k�k��,3.4,��
2018/10/13,20:10,0.773,1.173,0.817,1.461,1.053,0.457,0.801,0.761,�k�k��,3.1,��
2018/10/13,20:20,0.774,1.170,0.820,1.460,1.052,0.455,0.803,0.759,�k��,3.5,��
2018/10/13,20:30,0.775,1.169,0.818,1.461,1.050,0.455,0.802,0.760,�k�k��,3.5,��
2018/10/13,20:40,0.773,1.168,0.820,1.460,1.054,0.456,0.801,0.760,�k�k��,4.0,��
2018/10/13,20:50,0.775,1.170,0.818,1.459,1.052,0.457,0.801,0.761,�k�k��,3.5,��
2018/10/13,21:00,0.773,1.168,0.817,1.462,1.051,0.457,0.802,0.761,�k�k��,3.8,��
2018/10/13,21:10,0.773,1.167,0.818,1.460,1.051,0.456,0.802,0.759,�k�k��,3.9,��
2018/10/13,21:20,0.774,1.166,0.819,1.462,1.051,0.456,0.801,0.761,�k�k��,4.1,��
2018/10/13,21:30,0.773,1.168,0.818,1.461,1.052,0.455,0.802,0.759,�k�k��,4.3,��
2018/10/13,21:40,0.772,1.169,0.820,1.462,1.053,0.456,0.800,0.761,�k�k��,4.3,��
2018/10/13,21:50,0.773,1.167,0.821,1.461,1.052,0.456,0.800,0.760,�k�k��,4.1,��
2018/10/13,22:00,0.773,1.168,0.817,1.460,1.052,0.456,0.800,0.760,�k�k��,4.3,��
2018/10/13,22:10,0.773,1.168,0.821,1.460,1.050,0.456,0.801,0.760,�k�k��,4.4,��
2018/10/13,22:20,0.771,1.168,0.819,1.462,1.051,0.456,0.800,0.760,�k��,5.1,��
2018/10/13,22:30,0.775,1.171,0.818,1.461,1.052,0.457,0.802,0.760,�k��,4.8,��
2018/10/13,22:40,0.773,1.168,0.818,1.460,1.051,0.456,0.801,0.761,�k�k��,4.8,��
2018/10/13,22:50,0.772,1.167,0.821,1.462,1.052,0.456,0.801,0.760,�k�k��,5.2,��
2018/10/13,23:00,0.775,1.169,0.821,1.461,1.052,0.457,0.802,0.759,�k�k��,5.4,��
2018/10/13,23:10,0.773,1.167,0.819,1.462,1.051,0.455,0.800,0.761,�k�k��,5.3,��
2018/10/13,23:20,0.775,1.171,0.820,1.460,1.053,0.455,0.802,0.759,�k�k��,4.9,��
2018/10/13,23:30,0.775,1.168,0.821,1.463,1.052,0.457,0.803,0.762,�k�k��,5.6,��
2018/10/13,23:40,0.776,1.170,0.819,1.460,1.050,0.457,0.804,0.761,�k�k��,5.6,��
2018/10/13,23:50,0.773,1.169,0.821,1.463,1.050,0.456,0.802,0.760,�k�k��,5.1,��
